Olivia, MN

6:12 AM CDT on September 28, 2016 (GMT -0500)
Olivia Regional

Weather History for KOVL - July, 2013

Change the Weather History Date:

Thursday, July 25, 2013

  Actual Average (KRWF) Record (KRWF)
Temperature  
Mean Temperature 70 °F -  
Max Temperature 77 °F 83 °F 104 °F (1941)
Min Temperature 62 °F 62 °F 51 °F (1959)
Cooling Degree Days 4    
Growing Degree Days 20 (Base 50)    
Moisture  
Dew Point 62 °F    
Average Humidity 74    
Maximum Humidity 88    
Minimum Humidity 54    
Precipitation  
Precipitation 0.28 in - - ()
Sea Level Pressure  
Sea Level Pressure 29.96 in    
Wind  
Wind Speed 6 mph (West)    
Max Wind Speed 14 mph    
Max Gust Speed 22 mph    
Visibility 10 miles    
Events Rain , Thunderstorm    
Averages and records for this station are not official NWS values.
T = Trace of Precipitation, MM = Missing Value Source: NWS Daily Summary

Daily Weather History Graph

Daily Weather History Graph

Search for Another Location

Airport or City:

Trip Planner

Search our weather history database for the weather conditions in past years. The results will help you decide how hot, cold, wet, or windy it might be!

Date:

Astronomy

Jul. 25, 2013 Rise Set
Actual Time 5:58 AM CDT 8:53 PM CDT
Civil Twilight 5:24 AM CDT 9:28 PM CDT
Nautical Twilight 4:40 AM CDT 10:11 PM CDT
Astronomical Twilight 3:48 AM CDT 11:03 PM CDT
Moon 10:22 PM CDT (7/25) 9:40 AM CDT (7/25)
Length of Visible Light 16h 03m
Length of Day
14h 55m
Waning Gibbous, 88% of the Moon is Illuminated
Jul 25
Waning Gibbous
Jul 29
Last Quarter
Aug 6
New
Aug 14
First Quarter
Aug 20
Full

Hourly Weather History & Observations

Time (CDT) Temp. Dew Point Humidity Pressure Visibility Wind Dir Wind Speed Gust Speed Precip Events Conditions
12:13 AM 64.4 °F 53.6 °F 68% 29.98 in 10.0 mi South 5.8 mph - N/A   Clear
12:34 AM 64.4 °F 53.6 °F 68% 29.98 in 10.0 mi South 5.8 mph - N/A   Clear
12:54 AM 64.4 °F 53.6 °F 68% 29.97 in 10.0 mi South 8.1 mph - N/A   Clear
1:14 AM 64.4 °F 53.6 °F 68% 29.96 in 10.0 mi South 8.1 mph - N/A   Clear
1:33 AM 64.4 °F 55.4 °F 73% 29.96 in 10.0 mi SSW 8.1 mph - N/A Thunderstorm Clear
1:54 AM 68.0 °F 55.4 °F 64% 29.96 in 10.0 mi SSW 5.8 mph - N/A Thunderstorm Mostly Cloudy
2:13 AM 64.4 °F 57.2 °F 77% 29.95 in 5.0 mi South 5.8 mph - 0.02 in Rain Rain
2:34 AM 62.6 °F 59.0 °F 88% 29.99 in 10.0 mi NW 10.4 mph 21.9 mph 0.03 in   Mostly Cloudy
2:54 AM 64.4 °F 59.0 °F 83% 29.97 in 4.0 mi Calm Calm - 0.21 in Rain , Thunderstorm Light Thunderstorms and Rain
3:13 AM 64.4 °F 60.8 °F 88% 29.97 in 7.0 mi SSW 4.6 mph - 0.02 in Rain , Thunderstorm Thunderstorms and Rain
3:34 AM 64.4 °F 60.8 °F 88% 29.96 in 10.0 mi SSW 8.1 mph - 0.04 in Rain , Thunderstorm Light Thunderstorms and Rain
3:53 AM 64.4 °F 60.8 °F 88% 29.97 in 10.0 mi SSW 6.9 mph - 0.04 in Thunderstorm Scattered Clouds
4:14 AM 64.4 °F 60.8 °F 88% 29.96 in 10.0 mi WSW 4.6 mph - N/A   Clear
4:34 AM 64.4 °F 60.8 °F 88% 29.96 in 10.0 mi WSW 8.1 mph - N/A   Scattered Clouds
4:54 AM 69.8 °F 64.4 °F 83% 29.95 in 10.0 mi West 8.1 mph - N/A   Mostly Cloudy
5:13 AM 69.8 °F 62.6 °F 78% 29.96 in 10.0 mi West 10.4 mph - N/A   Scattered Clouds
5:34 AM 69.8 °F 62.6 °F 78% 29.96 in 10.0 mi WSW 8.1 mph - N/A   Clear
5:54 AM 68.0 °F 60.8 °F 78% 29.95 in 10.0 mi WSW 5.8 mph - N/A   Clear
6:14 AM 64.4 °F 60.8 °F 88% 29.95 in 10.0 mi WSW 4.6 mph - N/A   Clear
6:34 AM 62.6 °F 59.0 °F 88% 29.96 in 10.0 mi WSW 4.6 mph - N/A   Clear
6:53 AM 64.4 °F 60.8 °F 88% 29.96 in 10.0 mi SW 4.6 mph - N/A   Clear
7:14 AM 66.2 °F 62.6 °F 88% 29.96 in 10.0 mi SSW 4.6 mph - N/A   Clear
7:34 AM 68.0 °F 62.6 °F 83% 29.96 in 10.0 mi SW 4.6 mph - N/A   Clear
7:53 AM 69.8 °F 64.4 °F 83% 29.96 in 10.0 mi WSW 3.5 mph - N/A   Clear
8:14 AM 69.8 °F 62.6 °F 78% 29.96 in 10.0 mi WSW 4.6 mph - N/A   Clear
8:34 AM 69.8 °F 62.6 °F 78% 29.96 in 10.0 mi SW 6.9 mph - N/A   Clear
8:54 AM 71.6 °F 62.6 °F 73% 29.96 in 10.0 mi WSW 5.8 mph - N/A   Clear
9:13 AM 73.4 °F 64.4 °F 73% 29.97 in 10.0 mi West 9.2 mph - N/A   Clear
9:34 AM 73.4 °F 64.4 °F 73% 29.97 in 10.0 mi West 8.1 mph - N/A   Clear
9:54 AM 73.4 °F 64.4 °F 73% 29.97 in 10.0 mi West 5.8 mph - N/A   Clear
10:13 AM 73.4 °F 64.4 °F 73% 29.96 in 10.0 mi West 5.8 mph - N/A   Clear
10:33 AM 73.4 °F 64.4 °F 73% 29.97 in 10.0 mi WSW 5.8 mph - N/A   Clear
10:54 AM 73.4 °F 66.2 °F 78% 29.98 in 10.0 mi West 5.8 mph - N/A   Clear
11:14 AM 73.4 °F 66.2 °F 78% 29.99 in 10.0 mi West 6.9 mph - N/A   Scattered Clouds
11:34 AM 73.4 °F 66.2 °F 78% 30.00 in 10.0 mi WNW 9.2 mph - N/A   Mostly Cloudy
11:54 AM 69.8 °F 64.4 °F 83% 30.00 in 5.0 mi Calm Calm - 0.03 in Rain Light Rain
12:13 PM 71.6 °F 68.0 °F 88% 30.00 in 10.0 mi NW 3.5 mph - N/A   Scattered Clouds
12:34 PM 73.4 °F 68.0 °F 83% 29.99 in 10.0 mi North 5.8 mph - N/A   Clear
12:54 PM 73.4 °F 68.0 °F 83% 29.99 in 10.0 mi NNW 8.1 mph - N/A   Scattered Clouds
1:14 PM 73.4 °F 64.4 °F 73% 29.99 in 10.0 mi North 8.1 mph - N/A   Mostly Cloudy
1:33 PM 73.4 °F 62.6 °F 69% 29.99 in 10.0 mi North 13.8 mph - N/A   Mostly Cloudy
1:54 PM 73.4 °F 62.6 °F 69% 29.99 in 10.0 mi North 8.1 mph - N/A   Mostly Cloudy
2:14 PM 73.4 °F 62.6 °F 69% 29.98 in 10.0 mi North 10.4 mph 17.3 mph N/A   Mostly Cloudy
2:33 PM 73.4 °F 60.8 °F 65% 29.97 in 10.0 mi North 9.2 mph 18.4 mph N/A   Scattered Clouds
2:53 PM 73.4 °F 60.8 °F 65% 29.97 in 10.0 mi NNW 9.2 mph - N/A   Clear
3:14 PM 73.4 °F 62.6 °F 69% 29.97 in 10.0 mi NNE 6.9 mph - N/A   Clear
3:33 PM 73.4 °F 60.8 °F 65% 29.96 in 10.0 mi NNW 3.5 mph - N/A   Clear
3:54 PM 77.0 °F 60.8 °F 57% 29.95 in 10.0 mi NW 5.8 mph - N/A   Clear
4:14 PM 77.0 °F 60.8 °F 57% 29.95 in 10.0 mi NW 3.5 mph - N/A   Clear
4:34 PM 77.0 °F 59.0 °F 54% 29.96 in 10.0 mi NW 5.8 mph - N/A   Clear
4:53 PM 77.0 °F 59.0 °F 54% 29.95 in 10.0 mi North 3.5 mph - N/A   Clear
5:14 PM 77.0 °F 60.8 °F 57% 29.95 in 10.0 mi West 4.6 mph - N/A   Clear
5:34 PM 77.0 °F 59.0 °F 54% 29.94 in 10.0 mi Calm Calm - N/A   Scattered Clouds
5:53 PM 77.0 °F 60.8 °F 57% 29.94 in 10.0 mi WNW 5.8 mph - N/A   Scattered Clouds
6:14 PM 77.0 °F 59.0 °F 54% 29.94 in 10.0 mi West 6.9 mph - N/A   Scattered Clouds
6:34 PM 77.0 °F 59.0 °F 54% 29.94 in 10.0 mi West 5.8 mph - N/A   Clear
6:53 PM 77.0 °F 59.0 °F 54% 29.94 in 10.0 mi NW 5.8 mph - N/A   Clear
7:14 PM 77.0 °F 60.8 °F 57% 29.93 in 10.0 mi NW 5.8 mph - N/A   Clear
7:34 PM 73.4 °F 59.0 °F 61% 29.93 in 10.0 mi WNW 3.5 mph - N/A   Mostly Cloudy
7:53 PM 73.4 °F 62.6 °F 69% 29.93 in 10.0 mi Calm Calm - N/A   Mostly Cloudy
8:14 PM 73.4 °F 66.2 °F 78% 29.94 in 10.0 mi SW 3.5 mph - N/A   Mostly Cloudy
8:33 PM 71.6 °F 64.4 °F 78% 29.94 in 10.0 mi SW 4.6 mph - N/A   Mostly Cloudy
8:54 PM 71.6 °F 64.4 °F 78% 29.94 in 10.0 mi SW 4.6 mph - N/A   Mostly Cloudy
9:13 PM 69.8 °F 62.6 °F 78% 29.95 in 10.0 mi Calm Calm - N/A   Mostly Cloudy
9:34 PM 69.8 °F 62.6 °F 78% 29.95 in 10.0 mi Calm Calm - N/A   Scattered Clouds
9:54 PM 69.8 °F 64.4 °F 83% 29.95 in 10.0 mi SSW 4.6 mph - N/A   Clear
10:14 PM 69.8 °F 64.4 °F 83% 29.96 in 10.0 mi SSW 5.8 mph - N/A   Scattered Clouds
10:33 PM 69.8 °F 64.4 °F 83% 29.96 in 10.0 mi Calm Calm - N/A   Mostly Cloudy
10:54 PM 69.8 °F 64.4 °F 83% 29.95 in 10.0 mi SSW 4.6 mph - N/A   Overcast
11:14 PM 69.8 °F 64.4 °F 83% 29.95 in 10.0 mi WSW 3.5 mph - N/A   Mostly Cloudy
11:34 PM 69.8 °F 64.4 °F 83% 29.95 in 10.0 mi West 4.6 mph - N/A   Mostly Cloudy
11:53 PM 69.8 °F 64.4 °F 83% 29.95 in 10.0 mi West 6.9 mph - N/A   Mostly Cloudy